Overview Statistics Trail Chart Weather Telemetry Raw packets
 

This is the latest recevied weather packets stored in our database for station/object NC4M. If no packets are shown the sender has not sent any weather packets the latest 10 day(s).

<< 1 2 3 4 5 6 7 >>
Time Temp. Humidity Pressure Rain* Wind** Luminosity Snow
1788556822 37.78° C 41% 1014.1 hPa 0 mm - 487 W/m² -
1788556521 37.78° C 42% 1014.4 hPa 0 mm - 508 W/m² -
1788556217 37.78° C 42% 1014.5 hPa 0 mm - 532 W/m² -
1788555916 37.78° C 41% 1014.6 hPa 0 mm - 549 W/m² -
1788555613 37.78° C 40% 1014.7 hPa 0 mm - 568 W/m² -
1788555308 37.78° C 41% 1014.7 hPa 0 mm - 580 W/m² -
1788555004 37.78° C 41% 1014.6 hPa 0 mm - 596 W/m² -
1788554700 37.78° C 40% 1014.8 hPa 0 mm - 619 W/m² -
1788554395 37.78° C 37% 1014.7 hPa 0 mm - 597 W/m² -
1788554092 37.22° C 38% 1014.8 hPa 0 mm - 195 W/m² -
1788553788 36.67° C 42% 1014.9 hPa 0 mm - 100 W/m² -
1788553484 36.67° C 41% 1014.9 hPa 0 mm - 222 W/m² -
1788553179 36.67° C 42% 1015.1 hPa 0 mm - 137 W/m² -
1788552874 36.11° C 41% 1015.3 hPa 0 mm - 490 W/m² -
1788552570 36.11° C 41% 1015.1 hPa 0 mm - 198 W/m² -
1788552268 35.56° C 41% 1015.1 hPa 0 mm - 316 W/m² -
1788551964 35.56° C 42% 1015.2 hPa 0 mm - 347 W/m² -
1788551662 36.67° C 40% 1015.5 hPa 0 mm - 96 W/m² -
1788551361 36.11° C 44% 1015.6 hPa 0 mm - 123 W/m² -
1788551061 35.56° C 43% 1015.5 hPa 0 mm - 116 W/m² -
1788550756 36.11° C 41% 1015.4 hPa 0 mm - 108 W/m² -
1788550452 36.11° C 43% 1015.7 hPa 0 mm - 116 W/m² -
1788550147 36.11° C 43% 1015.5 hPa 0 mm - 369 W/m² -
1788549842 36.11° C 42% 1015.7 hPa 0 mm - 157 W/m² -
1788549544 36.11° C 44% 1015.8 hPa 0 mm - 135 W/m² -

* Rain latest hour (hover to see other rain measurements)
** Current wind speed in m/s (hover to see current wind gust speed)